Simultaneous Nadir Overpasses (SNOs) Predictions

Prediction of SNOs between METOP-A and TERRA Satellite Orbit:

Table of predicted SNOs for the next 14.0 days since TLE Epoch: 11/14/2015
Index Date (METOP-A) Time (METOP-A) Lat,Lon (METOP-A) SZA (METOP-A ) Date (TERRA) Time (TERRA) Lat,Lon (TERRA) SZA (TERRA ) Distance(km) Time Diff (sec)
1 11/15/2015 16:27:19 -81.28, 159.56 77.22 11/15/2015 16:28:33 -81.26, 159.56 77.19 1.34 74
2 11/15/2015 17:17:57 81.29, -32.14 102.92 11/15/2015 17:17:58 81.29, -32.33 102.89 3.23 1
3 11/15/2015 18:08:38 -81.29, 135.26 77.07 11/15/2015 18:07:25 -81.29, 135.24 77.11 0.47 73
4 11/18/2015 12:01:44 -81.28,-133.88 76.52 11/18/2015 12:02:47 -81.28,-133.70 76.47 2.93 63
5 11/18/2015 12:52:23 81.28, 33.99 103.56 11/18/2015 12:52:13 81.28, 34.00 103.55 0.25 10
6 11
